GW6499 Weather Reports


time (UTC)temp
F
wind
direction
speed
knots
gust
knots
rain 1hr
in
rain 24hr
in
rain mn
in
humidity
%
barometer
mb
20260505094009 40 360 5.2 13.0 0.00 0.10 0.00 89 1013.0
20260505093510 40 348 7.8 13.0 0.00 0.10 0.00 89 1012.9
20260505093021 40 342 6.1 14.8 0.00 0.10 0.00 89 1013.0
20260505092507 40 300 7.8 14.8 0.00 0.10 0.00 89 1013.0
20260505092013 40 360 7.8 14.8 0.00 0.10 0.00 89 1013.1
20260505091528 40 329 7.0 13.0 0.00 0.10 0.00 89 1013.1
20260505091009 40 360 7.8 13.9 0.00 0.10 0.00 88 1013.0
20260505090508 41 338 8.7 14.8 0.00 0.10 0.00 88 1012.8
20260505090037 41 329 7.0 14.8 0.00 0.10 0.00 88 1012.8
20260505085506 42 321 6.1 14.8 0.00 0.10 0.00 88 1012.8
20260505085004 42 5 5.2 14.8 0.00 0.10 0.00 87 1012.8
20260505084516 44 360 8.7 14.8 0.00 0.10 0.00 87 1012.8
20260505084007 45 338 2.6 7.8 0.00 0.10 0.00 88 1012.7
20260505083507 45 13 0.0 7.0 0.00 0.10 0.00 88 1012.7
20260505083018 45 10 0.0 5.2 0.00 0.10 0.00 87 1012.7
20260505082507 45 348 0.9 5.2 0.00 0.10 0.00 87 1012.8
20260505082008 45 334 0.9 4.3 0.00 0.10 0.00 87 1012.9
20260505081528 45 197 0.0 0.0 0.00 0.10 0.00 87 1012.9
20260505081008 45 180 0.0 0.0 0.00 0.10 0.00 87 1012.7
20260505080508 45 180 0.0 0.0 0.00 0.10 0.00 87 1012.8
20260505080033 45 180 0.0 0.0 0.00 0.10 0.00 87 1012.9
20260505075512 45 180 0.0 0.0 0.00 0.10 0.00 87 1012.7
20260505075012 45 180 0.0 0.0 0.00 0.10 0.00 87 1012.6
20260505074526 45 180 0.0 0.0 0.00 0.10 0.00 87 1012.7
20260505074009 45 180 0.0 0.0 0.00 0.10 0.00 87 1012.8
20260505073506 45 180 0.0 0.0 0.00 0.10 0.00 87 1012.7
20260505073027 45 180 0.0 3.5 0.00 0.10 0.00 87 1012.9
20260505072511 45 180 0.0 3.5 0.00 0.10 0.00 87 1012.9
20260505072007 45 179 0.0 3.5 0.00 0.10 0.00 87 1012.7
20260505071520 45 180 0.0 2.6 0.00 0.10 0.00 87 1012.8
20260505071006 45 259 0.0 0.0 0.00 0.10 0.00 86 1013.0
20260505070512 45 259 0.0 0.0 0.00 0.10 0.00 86 1013.0
20260505070026 45 259 0.0 0.0 0.00 0.10 0.00 86 1013.1
20260505065508 45 259 0.0 0.0 0.00 0.10 0.00 86 1013.0
20260505065012 45 259 0.0 0.0 0.00 0.10 0.00 86 1013.1
20260505064538 46 259 0.0 0.0 0.00 0.10 0.00 86 1013.2
20260505064010 46 259 0.0 0.0 0.00 0.10 0.00 86 1013.2
20260505063509 46 259 0.0 0.0 0.00 0.10 0.00 86 1013.0
20260505063029 45 260 0.0 0.0 0.00 0.10 0.00 86 1013.0
20260505062511 45 260 0.0 0.0 0.00 0.10 0.00 86 1013.1
20260505062006 45 260 0.0 0.0 0.00 0.10 0.00 85 1013.1
20260505061530 45 260 0.0 0.0 0.00 0.10 0.00 85 1013.1
20260505061007 45 261 0.0 0.0 0.00 0.10 0.00 85 1013.2
20260505060508 45 261 0.0 0.0 0.00 0.10 0.00 85 1013.2
20260505060022 45 262 0.0 0.0 0.00 0.10 0.00 84 1013.2
20260505055512 45 263 0.0 0.0 0.00 0.10 0.10 84 1013.1
20260505055011 45 266 0.0 0.0 0.00 0.10 0.10 84 1013.1
20260505054544 45 266 0.0 0.0 0.00 0.10 0.10 85 1013.2
20260505054012 45 273 0.0 0.0 0.00 0.10 0.10 85 1013.3
20260505053510 45 273 0.0 0.0 0.00 0.10 0.10 85 1013.1
20260505053032 45 273 0.0 0.0 0.00 0.10 0.10 85 1013.1
20260505052507 45 273 0.0 0.0 0.00 0.10 0.10 85 1013.2
20260505052014 45 273 0.0 0.0 0.00 0.10 0.10 85 1013.2
20260505051517 45 273 0.0 0.0 0.00 0.10 0.10 85 1013.2
20260505051009 45 273 0.0 0.0 0.00 0.10 0.10 85 1013.4
20260505050506 45 273 0.0 0.0 0.00 0.10 0.10 85 1013.6
20260505041514 45 277 0.0 0.0 0.05 0.10 0.10 86 1013.7
20260505041006 45 277 0.0 0.0 0.06 0.10 0.10 86 1014.0
20260505040506 45 279 0.0 2.6 0.07 0.10 0.10 86 1014.0
20260505040018 45 360 0.0 2.6 0.07 0.10 0.10 86 1013.8
20260505035507 45 360 0.0 0.0 0.06 0.09 0.09 85 1013.8
20260505035007 45 360 0.0 0.0 0.06 0.09 0.09 85 1013.5
20260505034526 45 360 0.0 7.0 0.06 0.09 0.09 84 1013.6
20260505034011 45 360 0.0 11.3 0.05 0.08 0.08 84 1013.8
20260505033510 46 360 3.5 12.2 0.05 0.08 0.08 84 1013.9
20260505033024 46 320 7.0 12.2 0.04 0.07 0.07 83 1014.1
20260505032503 46 360 6.1 12.2 0.04 0.07 0.07 83 1014.0
20260505032005 47 360 6.1 13.0 0.03 0.06 0.06 82 1013.8
20260505031526 47 360 8.7 13.0 0.02 0.05 0.05 81 1013.5
20260505031003 48 319 7.8 13.0 0.01 0.04 0.04 79 1013.4
20260505030504 48 282 4.3 12.2 0.00 0.03 0.03 77 1013.4
20260505030015 49 332 7.0 12.2 0.00 0.03 0.03 75 1013.3
20260505025507 49 360 3.5 8.7 0.00 0.03 0.03 75 1013.2
20260505025008 49 331 5.2 8.7 0.00 0.03 0.03 74 1013.0
20260505024529 49 340 3.5 9.6 0.00 0.03 0.03 73 1012.9
20260505024007 49 5 3.5 9.6 0.00 0.03 0.03 73 1012.8
20260505023508 49 360 4.3 10.4 0.00 0.03 0.03 72 1012.6
20260505023030 50 327 2.6 10.4 0.00 0.03 0.03 71 1012.5
20260505022508 50 12 6.1 11.3 0.00 0.03 0.03 69 1012.4
20260505022012 51 9 2.6 11.3 0.00 0.03 0.03 68 1012.3
20260505021527 52 180 0.0 2.6 0.00 0.03 0.03 71 1012.3
20260505021006 52 178 0.0 0.0 0.00 0.03 0.03 71 1012.0
20260505020503 52 178 0.0 0.0 0.00 0.03 0.03 72 1012.1
20260505020020 52 178 0.0 0.0 0.00 0.03 0.03 72 1012.1
20260505015504 52 178 0.0 0.0 0.00 0.03 0.03 72 1012.2
20260505015007 52 178 0.0 0.0 0.00 0.03 0.03 71 1012.2
20260505014512 52 178 0.0 0.0 0.00 0.03 0.03 72 1012.2
20260505014008 52 178 0.0 0.0 0.00 0.03 0.03 71 1011.9
20260505013509 52 178 0.0 0.0 0.01 0.03 0.03 72 1011.8
20260505013017 51 178 0.0 0.0 0.01 0.03 0.03 71 1011.8
20260505012509 51 178 0.0 0.0 0.01 0.03 0.03 70 1011.8
20260505012009 51 178 0.0 0.0 0.01 0.03 0.03 71 1011.9
20260505011531 51 178 0.0 0.0 0.02 0.03 0.03 71 1011.9
20260505011009 51 177 0.0 0.0 0.03 0.03 0.03 68 1011.9
20260505010513 51 177 0.0 0.0 0.03 0.03 0.03 70 1011.8
20260505010027 51 177 0.0 0.0 0.03 0.03 0.03 71 1011.7
20260505005503 51 177 0.0 0.0 0.03 0.03 0.03 72 1011.8
20260505005004 51 177 0.0 0.0 0.03 0.03 0.03 71 1011.8
20260505004529 51 177 0.0 2.6 0.03 0.03 0.03 73 1011.9
20260505004007 51 177 0.0 4.3 0.03 0.03 0.03 72 1011.9
20260505003507 51 177 0.9 5.2 0.02 0.02 0.02 70 1012.0
20260505003016 52 173 0.9 5.2 0.02 0.02 0.02 69 1012.2
20260505002509 52 168 0.9 9.6 0.02 0.02 0.02 66 1012.3
20260505002012 53 170 0.9 12.2 0.02 0.02 0.02 58 1012.6
20260505001520 55 178 3.5 12.2 0.01 0.01 0.01 57 1012.5
20260505001014 57 271 0.0 9.6 0.00 0.00 0.00 48 1012.3
20260505000513 56 360 4.3 9.6 0.00 0.00 0.00 46 1011.9
20260505000036 56 332 4.3 10.4 0.00 0.00 0.00 46 1011.7
20260504235510 56 275 7.0 10.4 0.00 0.00 0.00 46 1011.6
20260504235010 57 360 7.8 10.4 0.00 0.00 0.00 46 1011.5
20260504234528 57 341 2.6 11.3 0.00 0.00 0.00 46 1011.5
20260504234010 57 350 4.3 11.3 0.00 0.00 0.00 45 1011.3
20260504233503 57 5 2.6 12.2 0.00 0.00 0.00 45 1011.3
20260504233013 57 349 7.0 12.2 0.00 0.00 0.00 44 1011.2
20260504232507 57 346 6.1 11.3 0.00 0.00 0.00 45 1011.2
20260504232010 57 360 7.0 14.8 0.00 0.00 0.00 44 1011.1
20260504231518 57 5 7.8 17.4 0.00 0.00 0.00 45 1011.1
20260504231009 57 316 6.1 17.4 0.00 0.00 0.00 45 1011.1
20260504230506 58 360 7.8 18.2 0.00 0.00 0.00 44 1010.9
20260504230022 59 360 9.6 18.2 0.00 0.00 0.00 43 1010.8
20260504225507 60 5 6.1 16.5 0.00 0.00 0.00 41 1010.7
20260504225015 60 24 6.1 14.8 0.00 0.00 0.00 40 1010.7
20260504224525 60 20 7.8 14.8 0.00 0.00 0.00 39 1010.7
20260504224014 60 330 7.8 13.9 0.00 0.00 0.00 40 1010.8
20260504223511 59 21 7.8 13.9 0.00 0.00 0.00 42 1010.9
20260504223026 59 348 6.1 16.5 0.00 0.00 0.00 42 1011.0
20260504222511 59 12 10.4 16.5 0.00 0.00 0.00 42 1011.1
20260504222010 59 344 8.7 19.1 0.00 0.00 0.00 40 1011.0
20260504221515 59 41 10.4 19.1 0.00 0.00 0.00 39 1010.9
20260504221008 59 38 12.2 18.2 0.00 0.00 0.00 39 1010.5
20260504220510 59 32 11.3 18.2 0.00 0.00 0.00 39 1010.4
20260504220020 59 17 8.7 18.2 0.00 0.00 0.00 38 1010.5
20260504215507 60 11 10.4 23.5 0.00 0.00 0.00 36 1010.2
20260504215013 61 13 12.2 23.5 0.00 0.00 0.00 35 1010.1
20260504214524 64 30 12.2 20.0 0.00 0.00 0.00 30 1010.0
20260504214009 64 26 4.3 12.2 0.00 0.00 0.00 27 1009.7
20260504213514 65 21 3.5 12.2 0.00 0.00 0.00 28 1009.5
20260504213029 65 37 0.9 11.3 0.00 0.00 0.00 28 1009.4
20260504212515 65 64 0.0 9.6 0.00 0.00 0.00 28 1009.5
20260504212011 65 53 4.3 10.4 0.00 0.00 0.00 28 1009.6
20260504211526 65 54 4.3 10.4 0.00 0.00 0.00 28 1009.7
20260504211010 66 91 2.6 10.4 0.00 0.00 0.00 27 1009.8
20260504210508 66 80 1.7 8.7 0.00 0.00 0.00 27 1009.9
20260504210022 66 65 1.7 8.7 0.00 0.00 0.00 27 1010.1
20260504205508 66 67 3.5 7.8 0.00 0.00 0.00 28 1010.1
20260504205010 65 78 2.6 8.7 0.00 0.00 0.00 29 1010.1
20260504204524 65 67 1.7 8.7 0.00 0.00 0.00 30 1010.3
20260504204010 64 80 1.7 9.6 0.00 0.00 0.00 30 1010.5
20260504203514 64 32 1.7 9.6 0.00 0.00 0.00 31 1010.7
20260504203028 63 26 4.3 14.8 0.00 0.00 0.00 32 1010.8
20260504202513 63 44 7.8 14.8 0.00 0.00 0.00 33 1010.9
20260504202017 62 39 9.6 13.0 0.00 0.00 0.00 33 1010.8
20260504201526 62 5 4.3 13.9 0.00 0.00 0.00 35 1011.0
20260504201010 61 352 3.5 13.9 0.00 0.00 0.00 36 1011.1
20260504200507 61 360 2.6 9.6 0.00 0.00 0.00 36 1011.3
20260504200016 61 350 5.2 11.3 0.00 0.00 0.00 37 1011.3
20260504195507 60 37 7.8 11.3 0.00 0.00 0.00 37 1011.1
20260504195007 60 40 1.7 11.3 0.00 0.00 0.00 37 1010.9
20260504194518 60 42 2.6 12.2 0.00 0.00 0.00 37 1010.9
20260504194009 60 69 6.1 12.2 0.00 0.00 0.00 35 1010.9
20260504193502 61 55 5.2 12.2 0.00 0.00 0.00 35 1011.0
20260504193004 61 46 2.6 7.8 0.00 0.00 0.00 34 1011.0
20260504192504 62 88 3.5 7.8 0.00 0.00 0.00 33 1011.3
20260504192006 62 175 0.0 8.7 0.00 0.00 0.00 34 1011.5
20260504191508 62 175 1.7 9.6 0.00 0.00 0.00 33 1011.6
20260504191003 62 175 2.6 10.4 0.00 0.00 0.00 31 1011.6
20260504190506 62 159 1.7 10.4 0.00 0.00 0.00 31 1011.4
20260504190010 63 144 3.5 12.2 0.00 0.00 0.00 29 1011.3
20260504185507 63 153 2.6 12.2 0.00 0.00 0.00 28 1011.1
20260504185007 64 175 2.6 11.3 0.00 0.00 0.00 27 1010.9
20260504184518 65 134 3.5 11.3 0.00 0.00 0.00 24 1010.7
20260504184009 65 70 0.9 7.8 0.00 0.00 0.00 23 1010.4
20260504183511 65 78 0.9 8.7 0.00 0.00 0.00 24 1010.3
20260504183019 66 77 3.5 8.7 0.00 0.00 0.00 23 1010.3
20260504182509 66 59 2.6 7.8 0.00 0.00 0.00 23 1010.2
20260504182005 66 65 1.7 7.8 0.00 0.00 0.00 23 1010.2
20260504181507 67 46 2.6 9.6 0.00 0.00 0.00 24 1010.1
20260504181004 67 63 0.9 10.4 0.00 0.00 0.00 25 1010.1
20260504180504 67 79 0.9 10.4 0.00 0.00 0.00 24 1010.1
20260504180010 67 78 0.0 8.7 0.00 0.00 0.00 24 1010.1
20260504175503 67 346 0.0 9.6 0.00 0.00 0.00 24 1010.3
20260504175006 67 40 3.5 12.2 0.00 0.00 0.00 24 1010.2
20260504174514 68 9 7.0 12.2 0.00 0.00 0.00 23 1010.3
20260504174004 68 344 4.3 10.4 0.00 0.00 0.00 21 1010.4
20260504173509 68 360 1.7 7.8 0.00 0.00 0.00 22 1010.5
20260504173020 68 264 0.0 7.0 0.00 0.00 0.00 21 1010.7
20260504172509 68 33 0.9 8.7 0.00 0.00 0.00 22 1010.7
20260504172009 67 20 2.6 10.4 0.00 0.00 0.00 22 1010.9
20260504171524 67 360 4.3 12.2 0.00 0.00 0.00 22 1010.9
20260504171010 67 360 5.2 13.0 0.00 0.00 0.00 24 1010.8
20260504170512 67 360 7.8 13.9 0.00 0.00 0.00 24 1010.9
20260504151006 63 265 0.0 11.3 0.00 0.00 0.00 26 1011.9
20260504150511 63 271 2.6 13.0 0.00 0.00 0.00 26 1012.0
20260504141009 58 360 2.6 8.7 0.00 0.00 0.00 28 1012.0
20260504140509 57 312 2.6 8.7 0.00 0.00 0.00 28 1012.0
20260504130507 54 347 0.0 0.0 0.00 0.00 0.00 29 1011.7
20260504110503 54 360 0.9 5.2 0.00 0.00 0.00 28 1011.7
20260504100502 52 273 0.0 1.7 0.00 0.00 0.00 32 1011.9